CFG2AS EDLW-GCLP

Flight info

Callsign CFG2AS
Flight time 4h 35m
Altitude 33000
Route BAMSU2Q/06 BAMSU DCT DIXAT DCT NILEM DCT MATIX DCT DUCRA UM728 RESMI UN857 DISAK DCT TUDRA DCT OSMOB DCT ARVID T424 PPN N857 NOLSA N10 BAN N857 HIJ N10 SVL N857 CLANA/N0454F350 N857 KORNO UN857 TERTO
Aircraft A321/M-SDE3FGHIRWY/LB1

Departure

Time 2026-04-30 10:13
Airport Dortmund Airport (EDLW)

Arrival

Time 2026-04-30 14:48
Airport Gran Canaria Airport (GCLP)
Time Latitude Longitude Altitude Speed Heading
2026-04-30 09:31 51.51579 7.61299 442 ft 0 kts 331°
2026-04-30 10:07 51.51584 7.61294 429 ft 3 kts 331°
2026-04-30 10:07 51.51602 7.61278 431 ft 1 kts 331°
2026-04-30 10:08 51.51605 7.61275 433 ft 1 kts 331°
2026-04-30 10:08 51.51619 7.61263 439 ft 2 kts 331°
2026-04-30 10:08 51.51634 7.61240 436 ft 5 kts 301°
2026-04-30 10:08 51.51619 7.61160 433 ft 8 kts 239°
2026-04-30 10:09 51.51595 7.61083 434 ft 7 kts 247°
2026-04-30 10:09 51.51572 7.60999 434 ft 11 kts 243°
2026-04-30 10:09 51.51533 7.60888 436 ft 11 kts 240°
2026-04-30 10:09 51.51498 7.60788 428 ft 10 kts 240°
2026-04-30 10:10 51.51465 7.60695 439 ft 9 kts 240°
2026-04-30 10:10 51.51435 7.60611 430 ft 8 kts 240°
2026-04-30 10:10 51.51409 7.60534 430 ft 8 kts 240°
2026-04-30 10:10 51.51383 7.60463 428 ft 7 kts 239°
2026-04-30 10:11 51.51366 7.60416 430 ft 7 kts 240°
2026-04-30 10:11 51.51360 7.60334 434 ft 9 kts 285°
2026-04-30 10:11 51.51406 7.60264 429 ft 9 kts 330°
2026-04-30 10:11 51.51467 7.60213 423 ft 5 kts 334°
2026-04-30 10:12 51.51480 7.60225 422 ft 4 kts 51°
2026-04-30 10:12 51.51484 7.60236 420 ft 0 kts 58°
2026-04-30 10:12 51.51510 7.60307 416 ft 34 kts 60°
2026-04-30 10:12 51.51764 7.61031 414 ft 110 kts 60°
2026-04-30 10:13 51.52237 7.62367 548 ft 153 kts 62°
2026-04-30 10:13 51.52752 7.63789 1467 ft 145 kts 63°
2026-04-30 10:13 51.53254 7.65207 2071 ft 155 kts 64°
2026-04-30 10:13 51.53823 7.66845 2121 ft 178 kts 64°
2026-04-30 10:14 51.54452 7.68660 2261 ft 194 kts 64°
2026-04-30 10:14 51.55142 7.70620 2396 ft 209 kts 63°
2026-04-30 10:14 51.55976 7.75316 2987 ft 237 kts 109°
2026-04-30 10:15 51.54994 7.77409 3696 ft 242 kts 146°
2026-04-30 10:15 51.53408 7.78398 4405 ft 251 kts 169°
2026-04-30 10:15 51.51653 7.77951 5025 ft 268 kts 200°
2026-04-30 10:15 51.50090 7.76199 5658 ft 282 kts 220°
2026-04-30 10:16 51.48949 7.73574 6251 ft 294 kts 242°
2026-04-30 10:16 51.48075 7.70582 6924 ft 297 kts 242°
2026-04-30 10:16 51.47197 7.67560 7549 ft 300 kts 242°
2026-04-30 10:17 51.45109 7.61738 8788 ft 304 kts 234°
2026-04-30 10:17 51.42838 7.55940 10023 ft 310 kts 234°
2026-04-30 10:17 51.41678 7.53000 10584 ft 314 kts 234°
2026-04-30 10:18 51.40478 7.49958 10770 ft 332 kts 235°
2026-04-30 10:18 51.39208 7.46736 10888 ft 351 kts 235°
2026-04-30 10:18 51.37875 7.43342 11015 ft 369 kts 235°
2026-04-30 10:19 51.35054 7.36139 11592 ft 390 kts 236°
2026-04-30 10:19 51.33611 7.32446 12129 ft 393 kts 236°
2026-04-30 10:19 51.32153 7.28718 12709 ft 396 kts 236°
2026-04-30 10:19 51.30691 7.24986 13256 ft 398 kts 236°
2026-04-30 10:20 51.29223 7.21249 13791 ft 402 kts 236°
2026-04-30 10:20 51.26308 7.13506 14763 ft 408 kts 243°
2026-04-30 10:20 51.25094 7.09468 15220 ft 411 kts 243°
2026-04-30 10:21 51.23834 7.05281 15670 ft 414 kts 243°
2026-04-30 10:21 51.22582 7.01135 16126 ft 416 kts 243°
2026-04-30 10:21 51.21316 6.96960 16568 ft 419 kts 243°
2026-04-30 10:21 51.20041 6.92764 17014 ft 421 kts 243°
2026-04-30 10:22 51.18755 6.88543 17441 ft 424 kts 243°
2026-04-30 10:22 51.17467 6.84313 17862 ft 427 kts 243°
2026-04-30 10:22 51.16164 6.80046 18283 ft 429 kts 243°
2026-04-30 10:22 51.14848 6.75748 18700 ft 432 kts 243°
2026-04-30 10:23 51.13526 6.71441 19070 ft 434 kts 243°
2026-04-30 10:23 51.12197 6.67115 19434 ft 437 kts 243°
2026-04-30 10:23 51.10857 6.62751 19784 ft 439 kts 243°
2026-04-30 10:23 51.09517 6.58386 20158 ft 440 kts 243°
2026-04-30 10:24 51.08170 6.54001 20519 ft 442 kts 243°
2026-04-30 10:24 51.06817 6.49604 20885 ft 444 kts 243°
2026-04-30 10:24 51.05449 6.45184 21228 ft 446 kts 243°
2026-04-30 10:24 51.04069 6.40739 21566 ft 449 kts 243°
2026-04-30 10:25 51.02685 6.36288 21923 ft 450 kts 243°
2026-04-30 10:25 51.01326 6.31924 22257 ft 453 kts 243°
2026-04-30 10:25 50.99908 6.27383 22584 ft 455 kts 243°
2026-04-30 10:25 50.98496 6.22879 22957 ft 457 kts 243°
2026-04-30 10:26 50.97081 6.18361 23289 ft 459 kts 243°
2026-04-30 10:26 50.95677 6.13867 23603 ft 461 kts 243°
2026-04-30 10:26 50.94230 6.09238 23947 ft 463 kts 243°
2026-04-30 10:26 50.92792 6.04654 24225 ft 465 kts 243°
2026-04-30 10:27 50.91345 6.00060 24499 ft 467 kts 243°
2026-04-30 10:27 50.89888 5.95454 24795 ft 468 kts 243°
2026-04-30 10:27 50.88423 5.90835 25035 ft 470 kts 243°
2026-04-30 10:27 50.86950 5.86190 25303 ft 472 kts 243°
2026-04-30 10:28 50.85477 5.81555 25577 ft 473 kts 243°
2026-04-30 10:28 50.83994 5.76895 25827 ft 475 kts 243°
2026-04-30 10:28 50.82504 5.72213 26081 ft 477 kts 243°
2026-04-30 10:28 50.81011 5.67529 26335 ft 478 kts 243°
2026-04-30 10:29 50.79506 5.62822 26571 ft 480 kts 243°
2026-04-30 10:29 50.78011 5.58163 26813 ft 481 kts 242°
2026-04-30 10:29 50.76481 5.53413 27084 ft 482 kts 242°
2026-04-30 10:29 50.74957 5.48686 27326 ft 483 kts 242°
2026-04-30 10:30 50.73426 5.43943 27581 ft 485 kts 242°
2026-04-30 10:30 50.71908 5.39241 27828 ft 486 kts 242°
2026-04-30 10:30 50.70373 5.34487 28178 ft 485 kts 242°
2026-04-30 10:30 50.68821 5.29694 28526 ft 485 kts 242°
2026-04-30 10:31 50.67309 5.25034 28869 ft 484 kts 242°
2026-04-30 10:31 50.65773 5.20315 29194 ft 483 kts 242°
2026-04-30 10:31 50.64237 5.15610 29528 ft 483 kts 242°
2026-04-30 10:31 50.62699 5.10911 29840 ft 482 kts 241°
2026-04-30 10:32 50.61167 5.06234 30200 ft 480 kts 241°
2026-04-30 10:32 50.59644 5.01586 30500 ft 479 kts 241°
2026-04-30 10:32 50.58124 4.96949 30769 ft 479 kts 241°
2026-04-30 10:32 50.56579 4.92255 31064 ft 478 kts 241°
2026-04-30 10:33 50.55050 4.87612 31343 ft 477 kts 241°
2026-04-30 10:33 50.53522 4.82986 31616 ft 476 kts 241°
2026-04-30 10:33 50.51995 4.78371 31886 ft 476 kts 240°
2026-04-30 10:33 50.50466 4.73757 32158 ft 475 kts 240°
2026-04-30 10:34 50.48936 4.69154 32438 ft 474 kts 240°
2026-04-30 10:34 50.47411 4.64578 32712 ft 474 kts 240°
2026-04-30 10:34 50.45877 4.59995 32996 ft 473 kts 240°
2026-04-30 10:34 50.44348 4.55433 33250 ft 472 kts 240°
2026-04-30 10:35 50.41316 4.46383 33302 ft 470 kts 240°
2026-04-30 10:35 50.38291 4.37364 33302 ft 469 kts 240°
2026-04-30 10:36 50.35244 4.28312 33297 ft 469 kts 240°
2026-04-30 10:36 50.32180 4.19288 33295 ft 469 kts 239°
2026-04-30 10:37 50.28289 4.11227 33281 ft 462 kts 220°
2026-04-30 10:37 50.23204 4.05220 33269 ft 457 kts 210°
2026-04-30 10:38 50.17912 3.99765 33259 ft 458 kts 210°
2026-04-30 10:38 50.12614 3.94292 33262 ft 458 kts 210°
2026-04-30 10:39 50.07342 3.88704 33252 ft 459 kts 213°
2026-04-30 10:39 50.02283 3.82592 33246 ft 461 kts 216°
2026-04-30 10:40 49.97267 3.76285 33240 ft 461 kts 215°
2026-04-30 10:40 49.92225 3.70129 33241 ft 461 kts 214°
2026-04-30 10:41 49.87135 3.64068 33244 ft 461 kts 214°
2026-04-30 10:41 49.82077 3.58066 33237 ft 461 kts 214°
2026-04-30 10:42 49.76994 3.52008 33241 ft 460 kts 214°
2026-04-30 10:42 49.71927 3.45974 33236 ft 460 kts 214°
2026-04-30 10:43 49.66848 3.39952 33235 ft 460 kts 214°
2026-04-30 10:43 49.61771 3.33953 33232 ft 459 kts 214°
2026-04-30 10:44 49.56689 3.27967 33223 ft 459 kts 214°
2026-04-30 10:44 49.51606 3.21995 33213 ft 459 kts 214°
2026-04-30 10:45 49.46548 3.16064 33214 ft 459 kts 214°
2026-04-30 10:45 49.41457 3.10110 33214 ft 459 kts 214°
2026-04-30 10:46 49.36373 3.04183 33209 ft 459 kts 214°
2026-04-30 10:46 49.31288 2.98279 33201 ft 458 kts 213°
2026-04-30 10:47 49.26192 2.92377 33203 ft 458 kts 213°
2026-04-30 10:47 49.21127 2.86506 33195 ft 458 kts 213°
2026-04-30 10:48 49.16042 2.80626 33187 ft 457 kts 213°
2026-04-30 10:48 49.10956 2.74770 33190 ft 457 kts 213°
2026-04-30 10:49 49.05865 2.68929 33188 ft 457 kts 213°
2026-04-30 10:49 49.00814 2.63151 33210 ft 457 kts 213°
2026-04-30 10:50 48.95699 2.57335 33213 ft 455 kts 212°
2026-04-30 10:50 48.90477 2.51973 33214 ft 452 kts 209°
2026-04-30 10:51 48.85169 2.46894 33208 ft 451 kts 208°
2026-04-30 10:51 48.79911 2.41828 33207 ft 451 kts 209°
2026-04-30 10:52 48.74663 2.36671 33193 ft 451 kts 210°
2026-04-30 10:52 48.69396 2.31467 33188 ft 450 kts 210°
2026-04-30 10:53 48.64137 2.26294 33197 ft 450 kts 209°
2026-04-30 10:53 48.59762 2.22035 33172 ft 450 kts 208°
2026-04-30 10:54 48.54097 2.18327 33142 ft 441 kts 191°
2026-04-30 10:54 48.48103 2.16366 33127 ft 440 kts 188°
2026-04-30 10:55 48.42120 2.14435 33133 ft 440 kts 189°
2026-04-30 10:55 48.36119 2.12498 33124 ft 441 kts 189°
2026-04-30 10:56 48.30136 2.10684 33120 ft 439 kts 184°
2026-04-30 10:56 48.24108 2.10877 33113 ft 434 kts 169°
2026-04-30 10:57 48.18123 2.12085 33113 ft 436 kts 175°
2026-04-30 10:57 48.12088 2.11092 33112 ft 442 kts 195°
2026-04-30 10:58 48.06494 2.07172 33108 ft 447 kts 208°
2026-04-30 10:58 48.01121 2.02463 33107 ft 448 kts 208°
2026-04-30 10:59 47.95724 1.97770 33111 ft 449 kts 209°
2026-04-30 10:59 47.90316 1.93074 33112 ft 450 kts 208°
2026-04-30 11:00 47.84900 1.88376 33108 ft 450 kts 208°
2026-04-30 11:00 47.79494 1.83694 33081 ft 450 kts 208°
2026-04-30 11:01 47.74126 1.79061 33083 ft 450 kts 209°
2026-04-30 11:01 47.68663 1.74345 33085 ft 450 kts 209°
2026-04-30 11:02 47.63250 1.69700 33091 ft 449 kts 209°
2026-04-30 11:02 47.57828 1.65067 33102 ft 449 kts 208°
2026-04-30 11:03 47.52451 1.60468 33110 ft 449 kts 208°
2026-04-30 11:04 47.44354 1.53556 33112 ft 448 kts 208°
2026-04-30 11:04 47.38954 1.48971 33112 ft 448 kts 208°
2026-04-30 11:05 47.33575 1.44418 33113 ft 447 kts 208°
2026-04-30 11:05 47.28151 1.39828 33109 ft 447 kts 208°
2026-04-30 11:06 47.22766 1.35278 33105 ft 447 kts 208°
2026-04-30 11:06 47.17370 1.30739 33101 ft 446 kts 208°
2026-04-30 11:07 47.11970 1.26200 33104 ft 446 kts 208°
2026-04-30 11:07 47.06591 1.21687 33108 ft 446 kts 207°
2026-04-30 11:08 47.01234 1.17208 33105 ft 445 kts 207°
2026-04-30 11:08 46.95850 1.12719 33119 ft 445 kts 207°
2026-04-30 11:09 46.90466 1.08245 33117 ft 444 kts 207°
2026-04-30 11:09 46.85085 1.03792 33112 ft 444 kts 207°
2026-04-30 11:10 46.79720 0.99351 33104 ft 443 kts 207°
2026-04-30 11:10 46.74353 0.94914 33102 ft 443 kts 207°
2026-04-30 11:11 46.68983 0.90480 33095 ft 443 kts 207°
2026-04-30 11:11 46.63620 0.86065 33087 ft 443 kts 207°
2026-04-30 11:12 46.58304 0.81699 33092 ft 443 kts 207°
2026-04-30 11:12 46.52886 0.77456 33096 ft 440 kts 200°
2026-04-30 11:13 46.47249 0.74006 33101 ft 439 kts 200°
2026-04-30 11:13 46.41636 0.70581 33091 ft 439 kts 200°
2026-04-30 11:14 46.35998 0.67138 33096 ft 439 kts 200°
2026-04-30 11:14 46.30370 0.63700 33085 ft 439 kts 200°
2026-04-30 11:15 46.24743 0.60280 33079 ft 439 kts 200°
2026-04-30 11:15 46.19106 0.56860 33078 ft 439 kts 200°
2026-04-30 11:16 46.13472 0.53452 33081 ft 439 kts 199°
2026-04-30 11:16 46.07832 0.50044 33079 ft 439 kts 199°
2026-04-30 11:17 46.02183 0.46643 33083 ft 440 kts 199°
2026-04-30 11:17 45.96549 0.43253 33094 ft 440 kts 199°
2026-04-30 11:18 45.90942 0.39892 33096 ft 440 kts 199°
2026-04-30 11:18 45.82431 0.34811 33112 ft 439 kts 199°
2026-04-30 11:19 45.76782 0.31442 33119 ft 439 kts 199°
2026-04-30 11:19 45.71147 0.28085 33114 ft 439 kts 199°
2026-04-30 11:20 45.65542 0.24752 33094 ft 439 kts 199°
2026-04-30 11:20 45.59897 0.21403 33094 ft 439 kts 199°
2026-04-30 11:21 45.54263 0.18075 33098 ft 438 kts 199°
2026-04-30 11:21 45.48626 0.14752 33093 ft 438 kts 199°
2026-04-30 11:22 45.42985 0.11425 33094 ft 439 kts 199°
2026-04-30 11:22 45.37345 0.08111 33095 ft 438 kts 200°
2026-04-30 11:23 45.31757 0.04843 33101 ft 438 kts 200°
2026-04-30 11:24 45.23240 -0.00126 33103 ft 438 kts 200°
2026-04-30 11:24 45.17645 -0.03409 33113 ft 438 kts 200°
2026-04-30 11:25 45.09192 -0.08339 33104 ft 437 kts 200°
2026-04-30 11:26 44.97932 -0.14845 33095 ft 437 kts 201°
2026-04-30 11:26 44.92299 -0.18099 33096 ft 437 kts 201°
2026-04-30 11:27 44.86681 -0.21351 33098 ft 437 kts 201°
2026-04-30 11:27 44.81052 -0.24589 33091 ft 437 kts 201°
2026-04-30 11:28 44.72659 -0.29397 33090 ft 436 kts 201°
2026-04-30 11:29 44.67020 -0.32629 33086 ft 436 kts 201°
2026-04-30 11:29 44.58838 -0.38295 33090 ft 437 kts 207°
2026-04-30 11:30 44.50755 -0.44232 33102 ft 437 kts 207°
2026-04-30 11:31 44.45375 -0.48166 33106 ft 437 kts 207°
2026-04-30 11:31 44.40020 -0.52088 33108 ft 436 kts 208°
2026-04-30 11:32 44.34669 -0.56007 33115 ft 434 kts 208°
2026-04-30 11:32 44.29278 -0.59941 33113 ft 433 kts 207°
2026-04-30 11:33 44.21272 -0.65752 33108 ft 432 kts 208°
2026-04-30 11:33 44.15969 -0.69596 33114 ft 431 kts 208°
2026-04-30 11:34 44.10642 -0.73445 33117 ft 431 kts 208°
2026-04-30 11:34 44.05334 -0.77275 33124 ft 430 kts 208°
2026-04-30 11:35 44.00007 -0.81117 33101 ft 430 kts 210°
2026-04-30 11:35 43.94710 -0.84923 33110 ft 429 kts 210°
2026-04-30 11:36 43.89403 -0.88723 33111 ft 428 kts 210°
2026-04-30 11:36 43.84107 -0.92517 33107 ft 428 kts 210°
2026-04-30 11:37 43.78854 -0.96286 33091 ft 427 kts 211°
2026-04-30 11:37 43.73577 -1.00052 33101 ft 426 kts 211°
2026-04-30 11:38 43.68318 -1.03790 33102 ft 425 kts 211°
2026-04-30 11:38 43.63059 -1.07520 33098 ft 424 kts 211°
2026-04-30 11:39 43.57817 -1.11232 33099 ft 423 kts 212°
2026-04-30 11:39 43.52592 -1.14930 33098 ft 422 kts 212°
2026-04-30 11:40 43.47397 -1.18600 33086 ft 422 kts 212°
2026-04-30 11:40 43.42174 -1.22282 33047 ft 422 kts 212°
2026-04-30 11:41 43.36951 -1.25969 33058 ft 422 kts 212°
2026-04-30 11:41 43.32575 -1.29041 33064 ft 422 kts 212°
2026-04-30 11:42 43.27338 -1.32708 33070 ft 422 kts 212°
2026-04-30 11:42 43.22139 -1.36331 33075 ft 422 kts 212°
2026-04-30 11:43 43.16905 -1.39981 33058 ft 422 kts 212°
2026-04-30 11:43 43.11673 -1.43629 33074 ft 423 kts 212°
2026-04-30 11:44 43.06423 -1.47277 33083 ft 423 kts 212°
2026-04-30 11:44 43.01163 -1.50942 33085 ft 424 kts 212°
2026-04-30 11:45 42.95911 -1.54604 33065 ft 424 kts 212°
2026-04-30 11:45 42.90645 -1.58270 33073 ft 425 kts 212°
2026-04-30 11:46 42.85377 -1.61929 33096 ft 425 kts 212°
2026-04-30 11:46 42.80099 -1.65567 33100 ft 425 kts 212°
2026-04-30 11:47 42.74826 -1.69187 33099 ft 425 kts 212°
2026-04-30 11:47 42.69538 -1.72804 33103 ft 425 kts 212°
2026-04-30 11:48 42.64234 -1.76377 33103 ft 425 kts 211°
2026-04-30 11:48 42.58957 -1.79904 33084 ft 425 kts 212°
2026-04-30 11:49 42.53657 -1.83450 33097 ft 425 kts 212°
2026-04-30 11:49 42.48356 -1.86992 33091 ft 424 kts 212°
2026-04-30 11:50 42.43037 -1.90542 33090 ft 424 kts 212°
2026-04-30 11:50 42.37728 -1.94081 33066 ft 424 kts 212°
2026-04-30 11:51 42.32472 -1.97584 33069 ft 424 kts 212°
2026-04-30 11:51 42.27181 -2.01112 33077 ft 424 kts 212°
2026-04-30 11:52 42.21884 -2.04624 33081 ft 424 kts 212°
2026-04-30 11:52 42.16583 -2.08120 33051 ft 424 kts 212°
2026-04-30 11:53 42.11292 -2.11609 33067 ft 424 kts 211°
2026-04-30 11:53 42.05996 -2.15104 33070 ft 423 kts 212°
2026-04-30 11:54 42.00697 -2.18591 33073 ft 424 kts 211°
2026-04-30 11:54 41.95397 -2.22061 33052 ft 423 kts 211°
2026-04-30 11:55 41.90149 -2.25501 33066 ft 423 kts 211°
2026-04-30 11:55 41.84852 -2.28971 33072 ft 423 kts 211°
2026-04-30 11:56 41.79565 -2.32420 33072 ft 423 kts 211°
2026-04-30 11:56 41.74266 -2.35873 33060 ft 423 kts 211°
2026-04-30 11:57 41.68982 -2.39312 33060 ft 423 kts 211°
2026-04-30 11:57 41.63680 -2.42765 33069 ft 423 kts 211°
2026-04-30 11:58 41.58386 -2.46194 33089 ft 423 kts 211°
2026-04-30 11:58 41.53092 -2.49615 33049 ft 423 kts 211°
2026-04-30 11:59 41.47812 -2.53025 33074 ft 422 kts 210°
2026-04-30 11:59 41.42512 -2.56441 33078 ft 422 kts 210°
2026-04-30 12:00 41.37247 -2.59828 33084 ft 422 kts 210°
2026-04-30 12:00 41.31984 -2.63343 33083 ft 418 kts 216°
2026-04-30 12:01 41.27220 -2.67719 33075 ft 416 kts 218°
2026-04-30 12:01 41.22451 -2.72105 33075 ft 417 kts 218°
2026-04-30 12:02 41.17683 -2.76488 33083 ft 417 kts 218°
2026-04-30 12:02 41.12912 -2.80863 33086 ft 417 kts 218°
2026-04-30 12:03 41.05745 -2.87422 33082 ft 417 kts 217°
2026-04-30 12:04 41.00994 -2.91758 33088 ft 417 kts 217°
2026-04-30 12:04 40.96208 -2.96115 33091 ft 417 kts 217°
2026-04-30 12:05 40.91440 -3.00461 33090 ft 417 kts 217°
2026-04-30 12:05 40.86641 -3.04820 33072 ft 417 kts 217°
2026-04-30 12:06 40.81846 -3.09163 33086 ft 418 kts 217°
2026-04-30 12:06 40.77052 -3.13499 33095 ft 418 kts 217°
2026-04-30 12:07 40.72238 -3.17839 33084 ft 419 kts 217°
2026-04-30 12:07 40.67431 -3.22177 33095 ft 419 kts 217°
2026-04-30 12:08 40.62625 -3.26509 33096 ft 419 kts 217°
2026-04-30 12:08 40.57806 -3.30849 33097 ft 419 kts 217°
2026-04-30 12:09 40.52980 -3.35180 33107 ft 419 kts 217°
2026-04-30 12:09 40.48164 -3.39492 33102 ft 419 kts 217°
2026-04-30 12:10 40.43343 -3.43799 33107 ft 419 kts 216°
2026-04-30 12:10 40.38564 -3.48062 33092 ft 420 kts 216°
2026-04-30 12:11 40.33714 -3.52378 33093 ft 420 kts 216°
2026-04-30 12:11 40.28865 -3.56690 33093 ft 421 kts 216°
2026-04-30 12:12 40.24017 -3.60992 33095 ft 421 kts 216°
2026-04-30 12:12 40.19169 -3.65293 33086 ft 421 kts 215°
2026-04-30 12:13 40.14313 -3.69586 33089 ft 421 kts 215°
2026-04-30 12:13 40.09452 -3.73868 33087 ft 422 kts 215°
2026-04-30 12:14 40.04607 -3.78135 33078 ft 422 kts 215°
2026-04-30 12:14 39.99728 -3.82440 33087 ft 422 kts 215°
2026-04-30 12:15 39.94878 -3.86707 33069 ft 422 kts 214°
2026-04-30 12:15 39.90017 -3.90963 33071 ft 423 kts 214°
2026-04-30 12:16 39.85121 -3.95242 33069 ft 423 kts 214°
2026-04-30 12:16 39.80234 -3.99518 33072 ft 423 kts 214°
2026-04-30 12:17 39.72885 -4.05918 33065 ft 424 kts 214°
2026-04-30 12:17 39.67982 -4.10181 33072 ft 424 kts 214°
2026-04-30 12:18 39.63101 -4.14430 33253 ft 427 kts 214°
2026-04-30 12:18 39.60646 -4.16564 33432 ft 427 kts 214°
2026-04-30 12:18 39.58164 -4.18715 33629 ft 427 kts 214°
2026-04-30 12:19 39.55698 -4.20850 33815 ft 427 kts 214°
2026-04-30 12:19 39.53223 -4.22989 34004 ft 427 kts 214°
2026-04-30 12:19 39.50753 -4.25118 34178 ft 427 kts 214°
2026-04-30 12:19 39.48275 -4.27251 34333 ft 426 kts 213°
2026-04-30 12:20 39.45804 -4.29378 34489 ft 425 kts 213°
2026-04-30 12:20 39.43348 -4.31493 34664 ft 424 kts 213°
2026-04-30 12:20 39.40893 -4.33608 34828 ft 424 kts 213°
2026-04-30 12:20 39.38433 -4.35725 35004 ft 423 kts 213°
2026-04-30 12:21 39.33584 -4.39895 35086 ft 422 kts 213°
2026-04-30 12:21 39.28679 -4.44106 35090 ft 422 kts 213°
2026-04-30 12:22 39.23786 -4.48291 35087 ft 422 kts 213°
2026-04-30 12:22 39.18899 -4.52478 35083 ft 422 kts 213°
2026-04-30 12:23 39.14011 -4.56661 35082 ft 422 kts 213°
2026-04-30 12:23 39.09109 -4.60836 35092 ft 422 kts 213°
2026-04-30 12:24 39.04204 -4.64999 35082 ft 422 kts 213°
2026-04-30 12:24 38.99307 -4.69156 35076 ft 422 kts 213°
2026-04-30 12:25 38.95234 -4.72615 35079 ft 422 kts 213°
2026-04-30 12:25 38.90324 -4.76770 35084 ft 422 kts 212°
2026-04-30 12:26 38.85418 -4.80908 35079 ft 422 kts 212°
2026-04-30 12:26 38.80499 -4.85057 35076 ft 422 kts 213°
2026-04-30 12:27 38.75593 -4.89193 35075 ft 422 kts 212°
2026-04-30 12:27 38.70680 -4.93322 35080 ft 422 kts 212°
2026-04-30 12:28 38.65799 -4.97418 35088 ft 422 kts 212°
2026-04-30 12:28 38.60888 -5.01536 35079 ft 423 kts 212°
2026-04-30 12:29 38.55959 -5.05656 35079 ft 423 kts 212°
2026-04-30 12:29 38.51028 -5.09752 35076 ft 423 kts 209°
2026-04-30 12:30 38.45789 -5.13116 35071 ft 422 kts 205°
2026-04-30 12:30 38.40495 -5.16390 35072 ft 422 kts 205°
2026-04-30 12:31 38.35212 -5.19657 35068 ft 422 kts 205°
2026-04-30 12:31 38.29928 -5.22933 35071 ft 422 kts 205°
2026-04-30 12:32 38.24636 -5.26215 35072 ft 422 kts 205°
2026-04-30 12:32 38.19353 -5.29485 35074 ft 422 kts 205°
2026-04-30 12:33 38.14058 -5.32754 35076 ft 422 kts 205°
2026-04-30 12:33 38.08803 -5.35983 35088 ft 423 kts 205°
2026-04-30 12:34 38.03500 -5.39241 35082 ft 423 kts 205°
2026-04-30 12:34 37.98207 -5.42492 35080 ft 423 kts 205°
2026-04-30 12:35 37.92906 -5.45737 35077 ft 423 kts 205°
2026-04-30 12:35 37.87620 -5.48972 35075 ft 423 kts 205°
2026-04-30 12:36 37.82311 -5.52212 35070 ft 423 kts 205°
2026-04-30 12:36 37.76999 -5.55445 35073 ft 423 kts 205°
2026-04-30 12:37 37.71699 -5.58679 35073 ft 423 kts 205°
2026-04-30 12:37 37.66400 -5.61906 35073 ft 423 kts 205°
2026-04-30 12:38 37.61154 -5.65097 35078 ft 423 kts 205°
2026-04-30 12:38 37.55839 -5.68320 35078 ft 422 kts 205°
2026-04-30 12:39 37.50572 -5.71504 35106 ft 422 kts 205°
2026-04-30 12:39 37.45245 -5.74717 35096 ft 422 kts 205°
2026-04-30 12:40 37.40356 -5.78771 35096 ft 423 kts 219°
2026-04-30 12:40 37.35886 -5.83539 35088 ft 423 kts 219°
2026-04-30 12:41 37.31381 -5.88328 35085 ft 423 kts 219°
2026-04-30 12:41 37.26895 -5.93092 35089 ft 422 kts 219°
2026-04-30 12:42 37.22425 -5.97845 35075 ft 422 kts 219°
2026-04-30 12:42 37.17962 -6.02578 35078 ft 422 kts 219°
2026-04-30 12:43 37.13437 -6.07360 35079 ft 422 kts 219°
2026-04-30 12:43 37.08973 -6.12066 35096 ft 422 kts 219°
2026-04-30 12:44 37.04474 -6.16800 35087 ft 422 kts 219°
2026-04-30 12:44 36.99982 -6.21534 35088 ft 422 kts 219°
2026-04-30 12:45 36.95493 -6.26245 35097 ft 421 kts 219°
2026-04-30 12:45 36.91003 -6.30947 35095 ft 421 kts 219°
2026-04-30 12:46 36.86543 -6.35610 35096 ft 420 kts 219°
2026-04-30 12:46 36.82039 -6.40319 35097 ft 420 kts 219°
2026-04-30 12:47 36.77559 -6.44997 35089 ft 419 kts 219°
2026-04-30 12:47 36.73132 -6.49619 35099 ft 419 kts 219°
2026-04-30 12:48 36.68634 -6.54301 35089 ft 420 kts 219°
2026-04-30 12:48 36.64114 -6.58996 35094 ft 420 kts 219°
2026-04-30 12:49 36.59651 -6.63628 35097 ft 420 kts 219°
2026-04-30 12:49 36.55163 -6.68269 35091 ft 420 kts 219°
2026-04-30 12:50 36.50652 -6.72921 35105 ft 420 kts 219°
2026-04-30 12:50 36.46152 -6.77572 35110 ft 420 kts 219°
2026-04-30 12:51 36.41673 -6.82191 35112 ft 420 kts 219°
2026-04-30 12:51 36.37150 -6.86845 35133 ft 420 kts 219°
2026-04-30 12:52 36.32641 -6.91478 35124 ft 421 kts 219°
2026-04-30 12:52 36.28159 -6.96081 35116 ft 421 kts 219°
2026-04-30 12:53 36.23647 -7.00700 35120 ft 421 kts 219°
2026-04-30 12:53 36.19128 -7.05314 35120 ft 421 kts 219°
2026-04-30 12:54 36.14608 -7.09933 35124 ft 421 kts 219°
2026-04-30 12:54 36.10089 -7.14543 35127 ft 421 kts 219°
2026-04-30 12:55 36.05577 -7.19130 35126 ft 421 kts 219°
2026-04-30 12:55 36.01038 -7.23737 35121 ft 421 kts 219°
2026-04-30 12:56 35.96542 -7.28294 35117 ft 421 kts 219°
2026-04-30 12:56 35.91988 -7.32902 35118 ft 421 kts 219°
2026-04-30 12:57 35.87456 -7.37483 35119 ft 421 kts 219°
2026-04-30 12:57 35.82958 -7.42033 35121 ft 422 kts 219°
2026-04-30 12:58 35.78410 -7.46606 35124 ft 422 kts 219°
2026-04-30 12:58 35.73854 -7.51151 35126 ft 422 kts 219°
2026-04-30 12:59 35.69289 -7.55691 35125 ft 422 kts 219°
2026-04-30 12:59 35.64712 -7.60239 35135 ft 422 kts 219°
2026-04-30 13:00 35.60153 -7.64770 35134 ft 422 kts 219°
2026-04-30 13:00 35.55584 -7.69303 35132 ft 422 kts 219°
2026-04-30 13:01 35.51010 -7.73834 35131 ft 422 kts 219°
2026-04-30 13:01 35.46428 -7.78357 35119 ft 422 kts 219°
2026-04-30 13:02 35.41848 -7.82875 35121 ft 422 kts 219°
2026-04-30 13:02 35.37283 -7.87404 35122 ft 422 kts 219°
2026-04-30 13:03 35.32736 -7.91976 35124 ft 422 kts 219°
2026-04-30 13:03 35.28186 -7.96537 35125 ft 422 kts 219°
2026-04-30 13:04 35.23664 -8.01052 35125 ft 422 kts 219°
2026-04-30 13:04 35.19102 -8.05587 35121 ft 423 kts 219°
2026-04-30 13:05 35.14540 -8.10128 35120 ft 423 kts 219°
2026-04-30 13:06 35.07700 -8.16910 35124 ft 423 kts 219°
2026-04-30 13:06 35.03117 -8.21438 35124 ft 423 kts 219°
2026-04-30 13:07 34.98536 -8.25954 35123 ft 423 kts 219°
2026-04-30 13:07 34.93991 -8.30434 35113 ft 423 kts 219°
2026-04-30 13:08 34.89420 -8.34943 35126 ft 423 kts 220°
2026-04-30 13:08 34.84835 -8.39456 35119 ft 423 kts 220°
2026-04-30 13:09 34.80263 -8.43953 35125 ft 423 kts 220°
2026-04-30 13:09 34.75679 -8.48452 35125 ft 423 kts 220°
2026-04-30 13:10 34.71104 -8.52933 35125 ft 422 kts 220°
2026-04-30 13:10 34.66528 -8.57420 35118 ft 422 kts 220°
2026-04-30 13:11 34.61939 -8.61896 35122 ft 422 kts 220°
2026-04-30 13:11 34.57362 -8.66359 35119 ft 423 kts 220°
2026-04-30 13:12 34.52771 -8.70827 35125 ft 423 kts 219°
2026-04-30 13:12 34.48186 -8.75282 35124 ft 422 kts 219°
2026-04-30 13:13 34.42072 -8.81212 35129 ft 422 kts 219°
2026-04-30 13:14 34.35176 -8.87856 35113 ft 422 kts 219°
2026-04-30 13:14 34.28283 -8.94446 35110 ft 422 kts 219°
2026-04-30 13:15 34.21389 -9.01061 35117 ft 422 kts 219°
2026-04-30 13:16 34.16782 -9.05471 35115 ft 422 kts 219°
2026-04-30 13:16 34.12162 -9.09874 35111 ft 422 kts 219°
2026-04-30 13:17 34.05236 -9.16477 35116 ft 422 kts 219°
2026-04-30 13:18 33.98316 -9.23053 35110 ft 422 kts 219°
2026-04-30 13:18 33.91383 -9.29626 35114 ft 422 kts 219°
2026-04-30 13:19 33.86766 -9.33997 35113 ft 422 kts 219°
2026-04-30 13:19 33.82150 -9.38374 35103 ft 422 kts 220°
2026-04-30 13:20 33.77540 -9.42735 35105 ft 423 kts 220°
2026-04-30 13:20 33.72931 -9.47086 35105 ft 423 kts 220°
2026-04-30 13:21 33.68293 -9.51435 35098 ft 423 kts 220°
2026-04-30 13:22 33.61340 -9.57976 35103 ft 424 kts 220°
2026-04-30 13:22 33.54351 -9.64528 35098 ft 425 kts 220°
2026-04-30 13:23 33.47368 -9.71070 35094 ft 425 kts 220°
2026-04-30 13:24 33.38019 -9.79790 35107 ft 426 kts 220°
2026-04-30 13:25 33.28673 -9.88501 35079 ft 429 kts 223°
2026-04-30 13:26 33.16785 -9.99526 35087 ft 435 kts 223°
2026-04-30 13:28 33.04828 -10.10602 35110 ft 437 kts 223°
2026-04-30 13:28 32.97598 -10.17275 35113 ft 438 kts 223°
2026-04-30 13:29 32.87926 -10.26150 35088 ft 441 kts 225°
2026-04-30 13:31 32.75715 -10.37335 35099 ft 445 kts 225°
2026-04-30 13:32 32.63445 -10.48541 35093 ft 447 kts 225°
2026-04-30 13:33 32.53545 -10.57548 35083 ft 448 kts 225°
2026-04-30 13:34 32.46151 -10.64256 35092 ft 450 kts 226°
2026-04-30 13:35 32.36168 -10.73276 35102 ft 452 kts 226°
2026-04-30 13:36 32.26162 -10.82308 35110 ft 452 kts 226°
2026-04-30 13:36 32.18680 -10.89041 35119 ft 452 kts 226°
2026-04-30 13:37 32.11147 -10.95809 35084 ft 452 kts 226°
2026-04-30 13:38 32.03645 -11.02535 35121 ft 451 kts 226°
2026-04-30 13:39 31.93658 -11.11468 35135 ft 450 kts 225°
2026-04-30 13:40 31.86210 -11.18124 35132 ft 450 kts 225°
2026-04-30 13:40 31.81226 -11.22569 35120 ft 450 kts 225°
2026-04-30 13:41 31.76224 -11.27013 35125 ft 450 kts 225°
2026-04-30 13:41 31.71224 -11.31458 35123 ft 450 kts 226°
2026-04-30 13:42 31.66249 -11.35908 35133 ft 449 kts 226°
2026-04-30 13:42 31.58807 -11.42543 35140 ft 447 kts 225°
2026-04-30 13:43 31.53848 -11.46937 35124 ft 447 kts 225°
2026-04-30 13:43 31.48904 -11.51326 35126 ft 446 kts 225°
2026-04-30 13:44 31.43946 -11.55721 35132 ft 446 kts 225°
2026-04-30 13:44 31.39022 -11.60075 35129 ft 446 kts 225°
2026-04-30 13:45 31.31589 -11.66633 35127 ft 446 kts 225°
2026-04-30 13:46 31.26621 -11.71019 35129 ft 446 kts 225°
2026-04-30 13:46 31.21661 -11.75380 35109 ft 446 kts 225°
2026-04-30 13:47 31.16703 -11.79745 35115 ft 446 kts 225°
2026-04-30 13:47 31.11754 -11.84096 35117 ft 446 kts 225°
2026-04-30 13:48 31.06819 -11.88420 35112 ft 446 kts 225°
2026-04-30 13:48 31.01854 -11.92767 35122 ft 446 kts 225°
2026-04-30 13:49 30.96888 -11.97113 35125 ft 446 kts 225°
2026-04-30 13:49 30.91926 -12.01453 35113 ft 446 kts 225°
2026-04-30 13:50 30.86958 -12.05787 35100 ft 446 kts 225°
2026-04-30 13:50 30.79507 -12.12267 35147 ft 445 kts 225°
2026-04-30 13:51 30.74557 -12.16568 35150 ft 444 kts 225°
2026-04-30 13:51 30.69614 -12.20862 35154 ft 443 kts 225°
2026-04-30 13:52 30.64682 -12.25143 35133 ft 443 kts 225°
2026-04-30 13:52 30.59777 -12.29391 35139 ft 442 kts 225°
2026-04-30 13:53 30.54843 -12.33653 35144 ft 442 kts 225°
2026-04-30 13:53 30.49911 -12.37914 35147 ft 442 kts 225°
2026-04-30 13:54 30.44977 -12.42162 35143 ft 442 kts 225°
2026-04-30 13:54 30.40038 -12.46401 35156 ft 441 kts 225°
2026-04-30 13:55 30.35112 -12.50619 35141 ft 440 kts 225°
2026-04-30 13:55 30.30194 -12.54825 35142 ft 439 kts 225°
2026-04-30 13:56 30.25299 -12.59030 35145 ft 439 kts 225°
2026-04-30 13:56 30.20393 -12.63231 35148 ft 438 kts 225°
2026-04-30 13:57 30.15512 -12.67378 35146 ft 438 kts 225°
2026-04-30 13:57 30.10617 -12.71535 35143 ft 438 kts 225°
2026-04-30 13:58 30.03260 -12.77814 35122 ft 437 kts 225°
2026-04-30 13:59 29.98374 -12.82001 35135 ft 436 kts 225°
2026-04-30 13:59 29.93493 -12.86167 35141 ft 436 kts 225°
2026-04-30 14:00 29.88644 -12.90295 35144 ft 436 kts 225°
2026-04-30 14:00 29.81329 -12.96512 35143 ft 435 kts 225°
2026-04-30 14:01 29.76460 -13.00651 35141 ft 435 kts 225°
2026-04-30 14:01 29.71593 -13.04784 35127 ft 435 kts 225°
2026-04-30 14:02 29.66722 -13.08910 35132 ft 435 kts 225°
2026-04-30 14:02 29.61849 -13.13027 35132 ft 435 kts 224°
2026-04-30 14:03 29.57794 -13.16449 35124 ft 435 kts 224°
2026-04-30 14:03 29.52914 -13.20559 35131 ft 434 kts 224°
2026-04-30 14:04 29.48060 -13.24653 35139 ft 434 kts 224°
2026-04-30 14:04 29.43195 -13.28754 35122 ft 433 kts 224°
2026-04-30 14:05 29.38328 -13.32849 35128 ft 433 kts 224°
2026-04-30 14:05 29.33483 -13.36931 35131 ft 433 kts 225°
2026-04-30 14:06 29.26188 -13.43058 35137 ft 433 kts 224°
2026-04-30 14:07 29.18889 -13.49152 35138 ft 433 kts 224°
2026-04-30 14:08 29.12481 -13.56065 35114 ft 420 kts 234°
2026-04-30 14:08 29.06449 -13.63396 35124 ft 420 kts 234°
2026-04-30 14:09 29.02475 -13.68223 35125 ft 419 kts 234°
2026-04-30 14:10 28.96470 -13.75490 35069 ft 420 kts 234°
2026-04-30 14:10 28.94481 -13.77896 34832 ft 419 kts 234°
2026-04-30 14:10 28.92476 -13.80321 34601 ft 419 kts 234°
2026-04-30 14:10 28.90473 -13.82745 34362 ft 419 kts 234°
2026-04-30 14:11 28.88468 -13.85174 34126 ft 420 kts 234°
2026-04-30 14:11 28.86459 -13.87609 33847 ft 420 kts 234°
2026-04-30 14:11 28.84457 -13.90032 33583 ft 420 kts 234°
2026-04-30 14:11 28.82446 -13.92460 33323 ft 421 kts 234°
2026-04-30 14:12 28.80431 -13.94886 33042 ft 422 kts 234°
2026-04-30 14:12 28.78407 -13.97319 32776 ft 423 kts 233°
2026-04-30 14:12 28.76377 -13.99758 32529 ft 424 kts 233°
2026-04-30 14:12 28.74340 -14.02204 32269 ft 425 kts 233°
2026-04-30 14:13 28.72303 -14.04650 31857 ft 426 kts 233°
2026-04-30 14:13 28.70247 -14.07123 30975 ft 432 kts 233°
2026-04-30 14:13 28.68201 -14.09586 30129 ft 436 kts 233°
2026-04-30 14:13 28.66114 -14.12093 29369 ft 435 kts 232°
2026-04-30 14:14 28.64037 -14.14574 28862 ft 429 kts 232°
2026-04-30 14:14 28.61994 -14.17011 28278 ft 424 kts 232°
2026-04-30 14:14 28.59963 -14.19435 27722 ft 420 kts 232°
2026-04-30 14:14 28.57965 -14.21823 27142 ft 416 kts 232°
2026-04-30 14:15 28.55981 -14.24198 26600 ft 412 kts 232°
2026-04-30 14:15 28.54009 -14.26560 26056 ft 408 kts 232°
2026-04-30 14:15 28.52067 -14.28883 25512 ft 404 kts 232°
2026-04-30 14:15 28.50132 -14.31194 24982 ft 401 kts 231°
2026-04-30 14:16 28.48212 -14.33488 24433 ft 399 kts 231°
2026-04-30 14:16 28.46307 -14.35762 23919 ft 395 kts 231°
2026-04-30 14:16 28.44424 -14.38008 23378 ft 392 kts 231°
2026-04-30 14:16 28.42547 -14.40245 22879 ft 386 kts 231°
2026-04-30 14:17 28.40732 -14.42405 22414 ft 381 kts 231°
2026-04-30 14:17 28.38895 -14.44589 21976 ft 375 kts 231°
2026-04-30 14:17 28.37120 -14.46695 21545 ft 369 kts 231°
2026-04-30 14:17 28.35379 -14.48763 21128 ft 364 kts 231°
2026-04-30 14:18 28.33627 -14.50847 20714 ft 359 kts 231°
2026-04-30 14:18 28.31913 -14.52882 20314 ft 356 kts 231°
2026-04-30 14:18 28.28512 -14.56927 19529 ft 352 kts 231°
2026-04-30 14:19 28.25147 -14.60922 18719 ft 348 kts 231°
2026-04-30 14:19 28.23483 -14.62892 18281 ft 346 kts 231°
2026-04-30 14:19 28.21816 -14.64869 17827 ft 344 kts 230°
2026-04-30 14:20 28.20192 -14.66792 17408 ft 342 kts 230°
2026-04-30 14:20 28.18518 -14.68769 16961 ft 341 kts 230°
2026-04-30 14:20 28.15249 -14.72623 16085 ft 338 kts 230°
2026-04-30 14:21 28.13647 -14.74513 15665 ft 336 kts 230°
2026-04-30 14:21 28.12028 -14.76422 15226 ft 335 kts 229°
2026-04-30 14:21 28.08802 -14.80222 14344 ft 333 kts 229°
2026-04-30 14:22 28.07194 -14.82114 13891 ft 333 kts 229°
2026-04-30 14:22 28.04009 -14.85856 12966 ft 330 kts 229°
2026-04-30 14:22 28.02427 -14.87717 12525 ft 328 kts 228°
2026-04-30 14:23 27.99357 -14.91322 12253 ft 305 kts 229°
2026-04-30 14:23 27.96513 -14.94656 11999 ft 284 kts 228°
2026-04-30 14:24 27.93878 -14.97744 11747 ft 263 kts 228°
2026-04-30 14:24 27.92623 -14.99228 11531 ft 256 kts 232°
2026-04-30 14:25 27.90648 -15.02499 11029 ft 250 kts 238°
2026-04-30 14:25 27.88718 -15.05758 10378 ft 248 kts 237°
2026-04-30 14:26 27.86801 -15.08988 9686 ft 246 kts 237°
2026-04-30 14:26 27.85860 -15.10572 9356 ft 245 kts 237°
2026-04-30 14:26 27.83968 -15.13759 8699 ft 244 kts 237°
2026-04-30 14:27 27.83024 -15.15354 8365 ft 243 kts 237°
2026-04-30 14:27 27.82081 -15.16944 8047 ft 243 kts 237°
2026-04-30 14:27 27.81144 -15.18521 7719 ft 243 kts 237°
2026-04-30 14:28 27.79263 -15.21684 7064 ft 242 kts 237°
2026-04-30 14:28 27.78325 -15.23261 6739 ft 242 kts 237°
2026-04-30 14:28 27.77386 -15.24840 6405 ft 242 kts 237°
2026-04-30 14:28 27.76446 -15.26420 6066 ft 242 kts 237°
2026-04-30 14:29 27.74568 -15.29583 5418 ft 243 kts 237°
2026-04-30 14:29 27.72994 -15.32229 4829 ft 245 kts 237°
2026-04-30 14:30 27.71457 -15.37908 3731 ft 226 kts 290°
2026-04-30 14:31 27.72571 -15.41102 3300 ft 214 kts 292°
2026-04-30 14:31 27.74415 -15.43567 2884 ft 201 kts 329°
2026-04-30 14:31 27.75658 -15.44231 2773 ft 194 kts 335°
2026-04-30 14:32 27.78185 -15.45070 2605 ft 192 kts
2026-04-30 14:32 27.79476 -15.44714 2451 ft 192 kts 22°
2026-04-30 14:32 27.80701 -15.44172 2348 ft 182 kts 22°
2026-04-30 14:33 27.81851 -15.43665 2155 ft 175 kts 22°
2026-04-30 14:33 27.84077 -15.42683 1745 ft 167 kts 23°
2026-04-30 14:33 27.85123 -15.42222 1522 ft 158 kts 23°
2026-04-30 14:34 27.86135 -15.41775 1316 ft 155 kts 24°
2026-04-30 14:34 27.87123 -15.41337 1095 ft 154 kts 25°
2026-04-30 14:34 27.88114 -15.40893 888 ft 153 kts 24°
2026-04-30 14:34 27.89114 -15.40438 725 ft 156 kts 23°
2026-04-30 14:35 27.90824 -15.39701 373 ft 159 kts 24°
2026-04-30 14:35 27.92185 -15.39096 98 ft 157 kts 24°
2026-04-30 14:35 27.93122 -15.38686 58 ft 131 kts 24°
2026-04-30 14:36 27.94069 -15.38232 223 ft 165 kts 27°
2026-04-30 14:36 27.95157 -15.37785 1039 ft 166 kts 22°
2026-04-30 14:36 27.96245 -15.37331 1522 ft 172 kts 23°
2026-04-30 14:36 27.97281 -15.36592 1640 ft 184 kts 56°
2026-04-30 14:37 27.97643 -15.35179 1772 ft 195 kts 89°
2026-04-30 14:37 27.97643 -15.33604 1902 ft 207 kts 95°
2026-04-30 14:37 27.97571 -15.31953 2171 ft 214 kts 94°
2026-04-30 14:37 27.97495 -15.30210 2401 ft 227 kts 94°
2026-04-30 14:38 27.97350 -15.28418 2879 ft 230 kts 105°
2026-04-30 14:38 27.96640 -15.26802 3352 ft 232 kts 133°
2026-04-30 14:38 27.95326 -15.25764 3786 ft 235 kts 162°
2026-04-30 14:38 27.93702 -15.25566 3976 ft 237 kts 192°
2026-04-30 14:39 27.92153 -15.26172 4012 ft 236 kts 204°
2026-04-30 14:39 27.90639 -15.26879 4011 ft 236 kts 204°
2026-04-30 14:39 27.89122 -15.27582 4011 ft 236 kts 204°
2026-04-30 14:40 27.86076 -15.28983 4010 ft 236 kts 204°
2026-04-30 14:40 27.84572 -15.29671 4011 ft 236 kts 203°
2026-04-30 14:40 27.83046 -15.30367 4011 ft 236 kts 203°
2026-04-30 14:40 27.81519 -15.31063 4010 ft 236 kts 203°
2026-04-30 14:41 27.79995 -15.31758 4015 ft 236 kts 203°
2026-04-30 14:41 27.78464 -15.32455 4014 ft 238 kts 202°
2026-04-30 14:41 27.76932 -15.33151 4013 ft 239 kts 202°
2026-04-30 14:41 27.75387 -15.33854 3990 ft 240 kts 202°
2026-04-30 14:42 27.73873 -15.34543 3613 ft 231 kts 202°
2026-04-30 14:42 27.72479 -15.35408 3080 ft 225 kts 225°
2026-04-30 14:42 27.71705 -15.36859 2987 ft 215 kts 255°
2026-04-30 14:42 27.71692 -15.38513 2981 ft 214 kts 285°
2026-04-30 14:43 27.72206 -15.40089 2857 ft 213 kts 291°
2026-04-30 14:43 27.72761 -15.41628 2737 ft 213 kts 296°
2026-04-30 14:43 27.73645 -15.42947 2621 ft 208 kts 317°
2026-04-30 14:43 27.74811 -15.43806 2529 ft 197 kts 335°
2026-04-30 14:44 27.76048 -15.44448 2495 ft 194 kts 335°
2026-04-30 14:44 27.77309 -15.44964 2499 ft 193 kts 349°
2026-04-30 14:44 27.78649 -15.44982 2501 ft 193 kts 10°
2026-04-30 14:44 27.79921 -15.44517 2490 ft 193 kts 22°
2026-04-30 14:45 27.81166 -15.43967 2316 ft 192 kts 22°
2026-04-30 14:45 27.82408 -15.43419 2072 ft 191 kts 23°
2026-04-30 14:45 27.83649 -15.42872 1832 ft 191 kts 22°
2026-04-30 14:45 27.84866 -15.42335 1592 ft 182 kts 22°
2026-04-30 14:46 27.86000 -15.41835 1343 ft 169 kts 23°
2026-04-30 14:46 27.87061 -15.41369 1105 ft 159 kts 24°
2026-04-30 14:46 27.88059 -15.40934 920 ft 149 kts 24°
2026-04-30 14:46 27.88713 -15.40646 804 ft 156 kts 22°
2026-04-30 14:47 27.90060 -15.40038 492 ft 156 kts 24°
2026-04-30 14:47 27.91056 -15.39603 296 ft 155 kts 23°
2026-04-30 14:47 27.92061 -15.39161 104 ft 151 kts 25°
2026-04-30 14:47 27.92940 -15.38770 60 ft 111 kts 21°
2026-04-30 14:48 27.93487 -15.38526 57 ft 60 kts 20°
2026-04-30 14:48 27.93775 -15.38417 60 ft 37 kts
2026-04-30 14:48 27.93980 -15.38451 71 ft 16 kts 348°
2026-04-30 14:48 27.94050 -15.38512 69 ft 11 kts 299°
2026-04-30 14:49 27.94062 -15.38546 67 ft 2 kts 288°
2026-04-30 14:49 27.94063 -15.38550 69 ft 1 kts 289°
2026-04-30 14:49 27.94075 -15.38599 75 ft 9 kts 270°
2026-04-30 14:49 27.94048 -15.38636 82 ft 4 kts 210°
2026-04-30 14:50 27.93946 -15.38682 83 ft 8 kts 201°
2026-04-30 14:50 27.93918 -15.38712 86 ft 4 kts 264°
2026-04-30 14:51 27.93925 -15.38740 89 ft 2 kts 289°
2026-04-30 14:51 27.93932 -15.38761 86 ft 2 kts 290°
2026-04-30 14:51 27.93940 -15.38783 89 ft 0 kts 291°
2026-04-30 14:52 27.93939 -15.38783 89 ft 0 kts 291°